Flag for Qatar Weather past 2 weeks in Al-Jamiliyah, Qatar

Now
65 °F

Clear.


Feels Like: 65 °F
Forecast: 73 / 92 °F
Wind: 10 mph from West

Location: Al Udeid

Current Time: Apr 20, 2015 at 4:02:26 AM

Latest Report: Apr 20, 2015 at 2:58 AM


Visibility: N/A

Pressure: 29.87 "Hg

Humidity: 73%

Dew point: 56 °F

Location of Al-JamiliyahLocation

Historic Weather in Al-Jamiliyah — Graph

°F

Al-Jamiliyah temperature yesterday

Maximum temperature yesterday: 88 °F (at 12:58 PM)
Minimum temperature yesterday: 67 °F (at 11:58 PM)
Average temperature yesterday: 79 °F

Past Weeks' High & Low Weather Summary

 TemperatureHumidityPressure
High110 °F (Apr 12, 1:58 PM)84% (Apr 12, 4:58 AM)30.02 "Hg (Apr 12, 4:58 AM)
Low64 °F (Apr 20, 1:58 AM)6% (Apr 12, 1:58 PM)29.68 "Hg (Apr 5, 2:58 AM)
Average83 °F37%29.87 "Hg
* Reported Apr 5 2:58 AM — Apr 20 2:58 AM, Al-Jamiliyah, Weather by CustomWeather, © 2015

Note: Actual official high and low records may vary slightly from our data, if they occured in-between our weather recording intervals... More about our weather records

Advertising

Al-Jamiliyah weather history for previous 24 hours

 ConditionsComfort  
Time TempWeatherWind HumidityBarometerVisibility
2:58 AM
Mon, Apr 20
65 °FClear.10 mph73%29.87 "HgN/A
1:58 AM64 °FSunny.8 mph55%29.88 "HgN/A
12:58 AM67 °FSunny.6 mph51%29.89 "HgN/A
11:58 PM
Sun, Apr 19
67 °FSunny.7 mph58%29.90 "HgN/A
10:58 PM71 °FSunny.7 mph52%29.91 "HgN/A
9:58 PM73 °FSunny.9 mph49%29.91 "HgN/A
8:58 PM74 °FSunny.8 mph45%29.91 "HgN/A
7:58 PM76 °FSunny.10 mph37%29.89 "HgN/A
6:58 PM78 °FSunny.17 mph29%29.88 "HgN/A
5:58 PM82 °FSunny.20 mph22%29.87 "HgN/A
4:58 PM84 °FSunny.21 mph21%29.85 "HgN/A
3:58 PM87 °FSunny.23 mph17%29.85 "HgN/A
2:58 PM88 °FSunny.24 mph15%29.85 "HgN/A
1:58 PM88 °FSunny.29 mph14%29.85 "Hg6 mi
12:58 PM88 °FClear.31 mph15%29.87 "Hg5 mi
11:58 AM87 °FClear.32 mph17%29.89 "Hg4 mi
10:58 AM87 °FClear.30 mph18%29.90 "Hg3 mi
9:58 AM86 °FClear.32 mph20%29.90 "Hg3 mi
8:58 AM83 °FClear.30 mph31%29.91 "Hg3 mi
7:58 AM80 °FClear.29 mph38%29.90 "Hg4 mi
6:58 AM76 °FClear.22 mph43%29.89 "Hg5 mi
5:58 AM73 °FClear.17 mph50%29.88 "Hg6 mi
4:58 AM72 °FClear.14 mph54%29.87 "HgN/A
Weather by CustomWeather, © 2015

See weather overviewHow to use our weather pages